Retour au catalogue

FENGYUN 1C DEB

ActifPO
NORAD 37427·DEBRIS·🇨🇳 China

Lancé May 10, 1999 depuis Taiyuan Satellite Launch Center

Loading…

Prochains Passages (prochaines 24 heures)

TLE

VieillissantSource: Space-Track

Époque: Sep 9, 2026, 17:38 UTC

1 37427U 99025EGV 26252.73479134  .00004729  00000-0  26892-3 0  9995
2 37427  98.6400  69.5176 0169627 126.0229 235.6849 15.02011798643867

Suivez FENGYUN 1C DEB en temps réel avec AllMySat

Download on the App Store